Vorticity
nan nan nan nan nan nan nan nan nan nan nan nan nan nan nan nan nan nan nan nan nan nan nan nan nan nan nan nan nan nan nan nan nan nan nan nan nan nan nan nan nan nan nan nan nan nan nan nan nan nan nan nan nan nan nan nan nan nan nan nan nan nan nan nan nan nan nan nan nan
nan 9 10 10 9 8 9 10 9 9 9 9 10 10 9 8 8 8 9 8 8 8 8 9 9 9 9 10 11 11 11 12 12 12 12 11 9 9 9 9 9 10 11 11 8 7 9 9 8 7 6 7 8 8 8 11 12 11 9 6 7 9 11 11 12 12 11 8 nan
nan 9 9 9 9 9 8 9 9 9 8 8 9 10 10 8 9 9 9 9 9 8 7 7 10 11 11 10 10 12 13 13 13 12 11 11 10 9 8 9 9 10 10 10 7 7 9 10 9 8 7 7 7 6 6 8 9 9 9 7 6 8 9 9 11 11 11 11 nan
nan 9 10 10 10 7 6 8 9 9 7 8 9 10 10 9 9 9 10 10 9 8 7 7 8 10 12 13 12 13 14 14 12 10 9 9 10 10 9 10 10 10 10 9 8 7 8 8 7 8 8 9 8 7 7 8 7 6 8 10 9 10 8 9 10 10 10 11 nan
nan 9 10 12 10 7 5 8 10 8 7 9 10 9 8 8 8 8 8 9 9 8 8 6 6 8 12 16 15 14 13 12 9 7 6 6 9 11 13 12 11 10 9 9 9 9 8 5 4 7 9 9 9 10 11 11 8 5 6 9 10 10 10 9 10 10 9 9 nan
nan 9 9 11 11 8 8 11 11 9 8 10 10 8 6 6 7 8 7 7 8 10 10 8 7 8 10 12 12 10 9 8 7 6 6 7 10 13 15 14 12 10 10 10 11 10 9 5 4 7 9 10 10 11 14 14 9 7 6 7 10 10 11 9 9 10 10 8 nan
nan 10 9 10 10 9 8 10 11 10 9 10 11 8 5 5 6 7 6 6 7 10 11 12 11 9 7 5 6 6 6 6 7 8 9 10 12 14 14 14 14 13 12 12 12 11 10 8 7 8 9 9 10 12 14 13 10 8 7 6 9 10 11 9 8 10 10 9 nan
nan 11 10 11 12 10 9 9 9 8 8 9 10 9 6 6 6 5 5 5 7 9 10 13 13 10 7 4 5 6 7 8 9 11 12 14 14 14 14 14 14 14 14 13 11 10 9 9 8 8 9 10 11 12 13 12 9 7 6 6 7 9 9 10 9 9 10 10 nan
nan 10 10 12 12 11 11 10 8 7 7 8 10 9 8 7 7 6 5 6 9 9 10 12 13 11 9 8 8 9 10 12 12 12 13 14 13 12 12 13 12 11 11 11 11 9 8 7 7 8 8 9 10 11 12 11 8 7 6 8 7 7 7 9 9 9 9 9 nan
nan 9 10 10 11 12 12 11 9 8 8 8 9 9 9 9 9 8 8 9 11 11 11 12 12 12 11 11 11 11 12 13 13 13 13 13 13 12 11 10 9 8 7 8 8 8 6 6 6 6 7 9 10 10 11 10 9 7 4 7 8 7 5 7 9 9 9 9 nan
nan 10 10 11 12 12 12 11 9 9 8 9 10 10 11 11 10 11 11 12 12 11 10 12 13 13 11 11 12 12 12 12 13 12 12 12 12 11 9 8 7 6 6 6 7 7 6 6 8 7 6 8 10 10 10 9 9 7 4 4 7 7 6 5 7 8 10 11 nan
nan 11 12 12 14 14 13 11 9 9 10 9 10 11 12 12 12 13 13 12 11 10 10 13 14 13 11 11 12 12 12 12 12 11 10 10 9 8 7 7 7 7 7 7 7 7 8 8 8 8 8 6 8 10 11 9 8 7 6 5 7 7 7 6 7 7 10 13 nan
nan 12 12 12 14 14 13 11 10 10 11 10 10 11 12 12 14 14 14 11 9 9 10 12 14 13 12 12 12 12 12 11 10 9 9 7 7 7 7 8 9 9 10 10 8 8 8 9 9 9 8 7 7 9 11 10 8 8 7 7 7 8 8 9 9 9 10 12 nan
nan 11 11 12 13 13 13 11 10 11 12 11 10 11 12 12 13 14 13 11 10 10 10 11 12 12 13 13 12 12 11 10 9 8 8 7 8 9 9 11 12 12 12 12 11 10 8 8 9 9 9 8 8 9 11 11 9 8 8 9 8 8 9 11 11 11 11 10 nan
nan 10 11 12 12 12 12 11 10 11 12 10 10 11 11 11 11 12 13 12 11 11 11 11 11 12 12 13 13 12 11 10 10 9 9 9 10 11 12 13 14 14 13 12 11 11 10 10 10 11 10 10 9 10 11 11 10 10 9 10 10 10 11 12 12 12 11 9 nan
nan 9 11 12 12 11 10 10 10 11 11 10 9 10 10 10 11 12 12 12 11 11 11 11 11 11 11 12 12 12 11 11 11 11 11 11 12 13 14 14 14 14 13 11 10 10 10 12 13 14 13 13 12 12 12 12 12 11 11 11 11 11 11 12 11 12 12 10 nan
nan 9 11 12 12 11 10 10 10 10 10 10 9 10 10 10 11 11 12 12 12 12 10 10 11 11 10 10 10 11 11 11 12 12 13 13 14 14 14 14 14 14 14 12 10 10 10 11 14 15 16 15 15 15 14 14 14 13 13 12 12 12 11 11 11 11 11 10 nan
nan 9 11 11 11 11 10 10 10 10 9 9 9 10 10 11 11 11 11 12 13 13 10 9 10 11 10 10 10 11 11 12 12 13 13 14 14 13 13 13 13 14 14 14 13 12 11 12 13 14 15 15 15 15 15 14 14 14 13 13 12 11 11 11 11 10 10 9 nan
nan 9 10 10 10 10 10 10 10 10 9 9 10 10 10 11 11 11 10 10 13 14 12 9 8 9 10 10 11 12 12 11 12 12 12 12 12 12 11 11 12 13 14 14 14 13 13 12 12 12 12 12 12 12 13 13 13 13 13 12 12 11 11 11 11 10 10 9 nan
nan 9 9 9 10 10 10 9 10 9 9 9 10 11 11 11 12 11 11 9 11 13 13 11 9 9 9 9 11 12 12 11 11 11 11 11 11 10 10 10 10 11 11 12 11 12 11 11 11 11 11 10 9 10 10 10 10 11 11 11 11 11 11 11 11 10 10 10 nan
nan 9 9 10 11 11 10 10 10 10 10 10 10 11 12 12 12 12 11 10 10 11 12 11 11 11 10 10 10 11 11 11 10 10 10 10 10 10 11 10 10 9 9 9 10 10 10 10 10 10 10 9 9 8 8 8 9 9 9 9 10 10 11 11 11 10 10 10 nan
nan 9 10 11 12 12 11 11 11 11 11 10 10 12 12 12 12 12 13 13 12 11 11 10 11 11 12 12 11 11 11 11 10 10 10 10 9 10 12 11 10 9 8 8 9 9 9 9 9 10 10 9 9 8 8 8 8 8 8 9 9 10 10 10 10 10 10 10 nan
nan 10 11 11 11 11 11 11 11 11 11 11 11 12 12 12 11 12 13 15 13 12 11 10 9 10 12 13 12 12 11 11 10 10 11 11 10 11 13 12 10 9 9 9 9 9 9 8 8 8 9 9 9 9 9 9 8 8 8 8 9 10 11 11 11 10 10 10 nan
nan 12 12 11 10 10 11 12 12 11 10 10 11 11 11 10 11 10 11 12 12 12 12 12 10 9 10 11 11 11 10 10 9 10 11 12 13 12 13 12 10 10 11 10 13 16 18 14 11 10 9 9 9 10 10 10 9 9 9 9 10 11 11 12 12 11 11 11 nan
nan 13 12 13 12 12 12 13 13 11 10 9 10 10 10 9 10 10 9 9 10 11 12 13 12 10 10 9 10 11 10 9 9 9 10 11 13 13 12 11 11 11 13 10 13 22 26 27 23 18 13 9 10 10 11 11 11 10 10 10 10 11 11 11 12 12 12 12 nan
nan 12 12 13 13 12 12 11 11 10 10 9 10 11 10 10 11 10 9 8 8 9 9 10 11 11 11 9 10 11 11 9 8 9 9 9 10 11 12 11 11 12 12 11 10 15 18 25 31 30 22 13 10 11 12 13 13 12 12 11 11 10 10 10 10 11 12 12 nan
nan 10 12 13 12 11 11 11 11 11 12 12 11 11 11 12 12 11 9 7 8 8 7 7 9 8 8 7 7 10 11 10 8 8 8 8 8 9 10 11 12 13 9 10 9 10 9 12 20 28 29 21 11 11 12 13 13 13 12 11 11 10 9 9 9 10 11 11 nan
nan 10 11 12 10 10 11 12 11 11 11 12 10 10 10 11 11 11 10 9 8 9 8 8 9 9 7 6 5 7 10 11 10 8 7 7 7 8 9 10 9 9 7 8 9 9 10 10 12 19 25 26 15 10 9 11 11 11 11 10 10 9 9 9 10 9 9 10 nan
nan 11 11 10 9 10 10 11 11 10 9 9 9 10 10 11 10 10 11 11 11 11 11 10 10 11 10 8 7 7 8 10 11 10 8 7 7 8 9 10 8 4 2 7 11 10 10 11 12 14 18 24 21 13 9 8 9 9 10 9 8 9 9 9 9 9 9 9 nan
nan 11 10 9 9 9 10 10 9 9 10 10 10 10 10 9 9 9 9 10 11 12 12 11 13 13 12 10 9 8 8 9 10 9 8 8 8 8 8 9 8 3 -1 4 10 10 10 10 11 11 13 19 22 16 11 9 9 8 8 8 7 8 9 9 8 9 10 10 nan
nan 11 10 9 9 9 9 10 11 12 12 13 12 11 10 9 8 7 6 6 8 10 12 12 12 11 10 9 10 9 9 11 11 10 8 7 7 8 8 8 7 4 -1 3 10 9 9 10 10 10 11 17 20 16 12 9 9 9 8 7 7 8 8 9 8 8 9 10 nan
nan 11 9 9 8 9 10 11 12 13 13 13 12 11 10 9 9 9 9 7 7 9 11 11 9 9 9 9 9 9 8 10 11 11 10 8 7 8 7 8 7 4 -0 3 9 9 9 9 9 9 10 16 19 14 11 9 9 8 8 7 7 8 9 8 8 8 9 10 nan
nan 11 9 8 9 9 10 11 12 12 11 11 10 10 9 8 10 11 11 10 9 8 8 8 6 7 8 8 8 8 9 9 8 8 9 9 9 9 9 10 6 -0 0 5 9 8 8 9 9 10 11 16 17 12 10 9 9 8 8 7 7 7 7 8 8 9 9 11 nan
nan 10 10 9 9 10 11 11 11 10 10 10 10 10 9 8 9 10 11 11 10 9 8 7 6 7 8 8 8 8 8 8 7 7 8 8 8 9 10 12 4 -6 -0 7 8 8 8 9 10 11 14 16 15 11 9 9 9 8 7 7 7 7 7 8 9 10 10 12 nan
nan 10 9 9 10 10 11 11 10 10 9 8 8 9 9 9 8 8 9 11 10 9 8 8 8 8 9 9 9 8 7 6 8 9 9 9 8 7 8 11 3 -6 -1 7 8 8 8 9 11 14 17 16 12 9 8 8 8 8 7 8 7 7 8 9 10 11 11 12 nan
nan 10 9 10 10 10 10 10 9 9 8 7 7 8 8 9 8 8 9 9 9 9 9 9 9 9 9 9 9 8 8 7 7 8 9 10 8 6 6 8 3 -5 -2 5 8 8 8 9 12 17 21 16 10 8 8 8 8 7 7 8 8 8 9 11 11 11 11 11 nan
nan 10 9 9 9 9 10 9 9 8 8 7 7 7 8 9 9 10 11 10 9 10 10 9 10 9 9 8 8 9 10 9 8 8 8 8 9 7 6 7 4 -1 -3 1 7 8 9 10 13 20 24 17 9 8 8 8 8 8 8 8 9 10 11 12 11 11 11 10 nan
nan 10 9 9 9 9 9 10 9 8 7 8 8 9 9 9 9 10 12 11 9 9 9 9 9 9 9 9 8 8 9 10 10 9 8 8 8 8 7 7 6 2 -3 -1 6 9 10 10 13 20 29 22 10 9 8 8 8 8 8 9 10 11 12 12 11 10 9 5 nan
nan 10 10 9 8 9 9 10 9 7 6 7 9 10 10 10 11 11 11 11 10 9 9 9 8 9 10 11 9 8 8 9 9 9 9 9 8 9 10 8 6 3 -3 -2 6 9 10 9 12 19 32 26 12 9 8 7 7 8 9 10 10 11 11 11 11 10 9 3 nan
nan 10 10 9 9 9 9 9 9 8 7 8 8 9 10 10 10 11 11 11 11 11 10 9 9 11 11 10 9 8 8 9 9 8 9 9 7 7 11 11 6 3 -2 -2 4 9 10 9 11 17 32 28 13 9 7 6 7 8 10 10 11 11 12 12 12 11 11 7 nan
nan nan nan nan nan nan nan nan nan nan nan nan nan nan nan nan nan nan nan nan nan nan nan nan nan nan nan nan nan nan nan nan nan nan nan nan nan nan nan nan nan nan nan nan nan nan nan nan nan nan nan nan nan nan nan nan nan nan nan nan nan nan nan nan nan nan nan nan nan
CAPE
nan nan nan nan nan nan nan nan nan nan nan nan nan nan nan nan nan nan nan nan nan nan nan nan nan nan nan nan nan nan nan nan nan nan nan nan nan nan nan nan nan nan nan nan nan nan nan nan nan nan nan nan nan nan nan nan nan nan nan nan nan nan nan nan nan nan nan nan nan
nan nan nan nan nan nan nan nan nan nan nan nan nan nan nan nan nan nan nan nan nan nan nan nan nan nan nan nan nan nan nan nan nan nan nan nan nan nan nan nan nan nan nan nan nan nan nan nan nan nan nan nan nan nan nan nan nan nan nan nan nan nan nan nan nan nan nan nan nan
nan nan nan nan nan nan nan nan nan nan nan nan nan nan nan nan nan nan nan nan nan nan nan nan nan nan nan nan nan nan nan nan nan nan nan nan nan nan nan nan nan nan nan nan nan nan nan nan nan nan nan nan nan nan nan nan nan nan nan nan nan nan nan nan nan nan nan nan nan
nan nan nan nan nan nan nan nan nan nan nan nan nan nan nan nan nan nan nan nan nan nan nan nan nan nan nan nan nan nan nan nan nan nan nan nan nan nan nan nan nan nan nan nan nan nan nan nan nan nan nan nan nan nan nan nan nan nan nan nan nan nan nan nan nan nan nan nan nan
nan nan nan nan nan nan nan nan nan nan nan nan nan nan nan nan nan nan nan nan nan nan nan nan nan nan nan nan nan nan nan nan nan nan nan nan nan nan nan nan nan nan nan nan nan nan nan nan nan nan nan nan nan nan nan nan nan nan nan nan nan nan nan nan nan nan nan nan nan
nan nan nan nan nan nan nan nan nan nan nan nan nan nan nan nan nan nan nan nan nan nan nan nan nan nan nan nan nan nan nan nan nan nan nan nan nan nan nan nan nan nan nan nan nan nan nan nan nan nan nan nan nan nan nan nan nan nan nan nan nan nan nan nan nan nan nan nan nan
nan nan nan nan nan nan nan nan nan nan nan nan nan nan nan nan nan nan nan nan nan nan nan nan nan nan nan nan nan nan nan nan nan nan nan nan nan nan nan nan nan nan nan nan nan nan nan nan nan nan nan nan nan nan nan nan nan nan nan nan nan nan nan nan nan nan nan nan nan
nan nan nan nan nan nan nan nan nan nan nan nan nan nan nan nan nan nan nan nan nan nan nan nan nan nan nan nan nan nan nan nan nan nan nan nan nan nan nan nan nan nan nan nan nan nan nan nan nan nan nan nan nan nan nan nan nan nan nan nan nan nan nan nan nan nan nan nan nan
nan nan nan nan nan nan nan nan nan nan nan nan nan nan nan nan nan nan nan nan nan nan nan nan nan nan nan nan nan nan nan nan nan nan nan nan nan nan nan nan nan nan nan nan nan nan nan nan nan nan nan nan nan nan nan nan nan nan nan nan nan nan nan nan nan nan nan nan nan
nan nan nan nan nan nan nan nan nan nan nan nan nan nan nan nan nan nan nan nan nan nan nan nan nan nan nan nan nan nan nan nan nan nan nan nan nan nan nan nan nan nan nan nan nan nan nan nan nan nan nan nan nan nan nan nan nan nan nan nan nan nan nan nan nan nan nan nan nan
nan nan nan nan nan nan nan nan nan nan nan nan nan nan nan nan nan nan nan nan nan nan nan nan nan nan nan nan nan nan nan nan nan nan nan nan nan nan nan nan nan nan nan nan nan nan nan nan nan nan nan nan nan nan nan nan nan nan nan nan nan nan nan nan nan nan nan nan nan
nan nan nan nan nan nan nan nan nan nan nan nan nan nan nan nan nan nan nan nan nan nan nan nan nan nan nan nan nan nan nan nan nan nan nan nan nan nan nan nan nan nan nan nan nan nan nan nan nan nan nan nan nan nan nan nan nan nan nan nan nan nan nan nan nan nan nan nan nan
nan nan nan nan nan nan nan nan nan nan nan nan nan nan nan nan nan nan nan nan nan nan nan nan nan nan nan nan nan nan nan nan nan nan nan nan nan nan nan nan nan nan nan nan nan nan nan nan nan nan nan nan nan nan nan nan nan nan nan nan nan nan nan nan nan nan nan nan nan
nan nan nan nan nan nan nan nan nan nan nan nan nan nan nan nan nan nan nan nan nan nan nan nan nan nan nan nan nan nan nan nan nan nan nan nan nan nan nan nan nan nan nan nan nan nan nan nan nan nan nan nan nan nan nan nan nan nan nan nan nan nan nan nan nan nan nan nan nan
nan nan nan nan nan nan nan nan nan nan nan nan nan nan nan nan nan nan nan nan nan nan nan nan nan nan nan nan nan nan nan nan nan nan nan nan nan nan nan nan nan nan nan nan nan nan nan nan nan nan nan nan nan nan nan nan nan nan nan nan nan nan nan nan nan nan nan nan nan
nan nan nan nan nan nan nan nan nan nan nan nan nan nan nan nan nan nan nan nan nan nan nan nan nan nan nan nan nan nan nan nan nan nan nan nan nan nan nan nan nan nan nan nan nan nan nan nan nan nan nan nan nan nan nan nan nan nan nan nan nan nan nan nan nan nan nan nan nan
nan nan nan nan nan nan nan nan nan nan nan nan nan nan nan nan nan nan nan nan nan nan nan nan nan nan nan nan nan nan nan nan nan nan nan nan nan nan nan nan nan nan nan nan nan nan nan nan nan nan nan nan nan nan nan nan nan nan nan nan nan nan nan nan nan nan nan nan nan
nan nan nan nan nan nan nan nan nan nan nan nan nan nan nan nan nan nan nan nan nan nan nan nan nan nan nan nan nan nan nan nan nan nan nan nan nan nan nan nan nan nan nan nan nan nan nan nan nan nan nan nan nan nan nan nan nan nan nan nan nan nan nan nan nan nan nan nan nan
nan nan nan nan nan nan nan nan nan nan nan nan nan nan nan nan nan nan nan nan nan nan nan nan nan nan nan nan nan nan nan nan nan nan nan nan nan nan nan nan nan nan nan nan nan nan nan nan nan nan nan nan nan nan nan nan nan nan nan nan nan nan nan nan nan nan nan nan nan
nan nan nan nan nan nan nan nan nan nan nan nan nan nan nan nan nan nan nan nan nan nan nan nan nan nan nan nan nan nan nan nan nan nan nan nan nan nan nan nan nan nan nan nan nan nan nan nan nan nan nan nan nan nan nan nan nan nan nan nan nan nan nan nan nan nan nan nan nan
nan nan nan nan nan nan nan nan nan nan nan nan nan nan nan nan nan nan nan nan nan nan nan nan nan nan nan nan nan nan nan nan nan nan nan nan nan nan nan nan nan nan nan nan nan nan nan nan nan nan nan nan nan nan nan nan nan nan nan nan nan nan nan nan nan nan nan nan nan
nan nan nan nan nan nan nan nan nan nan nan nan nan nan nan nan nan nan nan nan nan nan nan nan nan nan nan nan nan nan nan nan nan nan nan nan nan nan nan nan nan nan nan nan nan nan nan nan nan nan nan nan nan nan nan nan nan nan nan nan nan nan nan nan nan nan nan nan nan
nan nan nan nan nan nan nan nan nan nan nan nan nan nan nan nan nan nan nan nan nan nan nan nan nan nan nan nan nan nan nan nan nan nan nan nan nan nan nan nan nan nan nan nan nan nan nan nan nan nan nan nan nan nan nan nan nan nan nan nan nan nan nan nan nan nan nan nan nan
nan nan nan nan nan nan nan nan nan nan nan nan nan nan nan nan nan nan nan nan nan nan nan nan nan nan nan nan nan nan nan nan nan nan nan nan nan nan nan nan nan nan nan nan nan nan nan nan nan nan nan nan nan nan nan nan nan nan nan nan nan nan nan nan nan nan nan nan nan
nan nan nan nan nan nan nan nan nan nan nan nan nan nan nan nan nan nan nan nan nan nan nan nan nan nan nan nan nan nan nan nan nan nan nan nan nan nan nan nan nan nan nan nan nan nan nan nan nan nan nan nan nan nan nan nan nan nan nan nan nan nan nan nan nan nan nan nan nan
nan nan nan nan nan nan nan nan nan nan nan nan nan nan nan nan nan nan nan nan nan nan nan nan nan nan nan nan nan nan nan nan nan nan nan nan nan nan nan nan nan nan nan nan nan nan nan nan nan nan nan nan nan nan nan nan nan nan nan nan nan nan nan nan nan nan nan nan nan
nan nan nan nan nan nan nan nan nan nan nan nan nan nan nan nan nan nan nan nan nan nan nan nan nan nan nan nan nan nan nan nan nan nan nan nan nan nan nan nan nan nan nan nan nan nan nan nan nan nan nan nan nan nan nan nan nan nan nan nan nan nan nan nan nan nan nan nan nan
nan nan nan nan nan nan nan nan nan nan nan nan nan nan nan nan nan nan nan nan nan nan nan nan nan nan nan nan nan nan nan nan nan nan nan nan nan nan nan nan nan nan nan nan nan nan nan nan nan nan nan nan nan nan nan nan nan nan nan nan nan nan nan nan nan nan nan nan nan
nan nan nan nan nan nan nan nan nan nan nan nan nan nan nan nan nan nan nan nan nan nan nan nan nan nan nan nan nan nan nan nan nan nan nan nan nan nan nan nan nan nan nan nan nan nan nan nan nan nan nan nan nan nan nan nan nan nan nan nan nan nan nan nan nan nan nan nan nan
nan nan nan nan nan nan nan nan nan nan nan nan nan nan nan nan nan nan nan nan nan nan nan nan nan nan nan nan nan nan nan nan nan nan nan nan nan nan nan nan nan nan nan nan nan nan nan nan nan nan nan nan nan nan nan nan nan nan nan nan nan nan nan nan nan nan nan nan nan
nan nan nan nan nan nan nan nan nan nan nan nan nan nan nan nan nan nan nan nan nan nan nan nan nan nan nan nan nan nan nan nan nan nan nan nan nan nan nan nan nan nan nan nan nan nan nan nan nan nan nan nan nan nan nan nan nan nan nan nan nan nan nan nan nan nan nan nan nan
nan nan nan nan nan nan nan nan nan nan nan nan nan nan nan nan nan nan nan nan nan nan nan nan nan nan nan nan nan nan nan nan nan nan nan nan nan nan nan nan nan nan nan nan nan nan nan nan nan nan nan nan nan nan nan nan nan nan nan nan nan nan nan nan nan nan nan nan nan
nan nan nan nan nan nan nan nan nan nan nan nan nan nan nan nan nan nan nan nan nan nan nan nan nan nan nan nan nan nan nan nan nan nan nan nan nan nan nan nan nan nan nan nan nan nan nan nan nan nan nan nan nan nan nan nan nan nan nan nan nan nan nan nan nan nan nan nan nan
nan nan nan nan nan nan nan nan nan nan nan nan nan nan nan nan nan nan nan nan nan nan nan nan nan nan nan nan nan nan nan nan nan nan nan nan nan nan nan nan nan nan nan nan nan nan nan nan 0 0 0 nan nan nan nan nan nan nan nan nan nan nan nan nan nan nan nan nan nan
nan nan nan nan nan nan nan nan nan nan nan nan nan nan nan nan nan nan nan nan nan nan nan nan nan nan nan nan nan nan nan nan nan nan nan nan nan nan nan nan nan nan nan nan nan nan nan nan 1 1 1 nan nan nan nan nan nan nan nan nan nan nan nan nan nan nan nan nan nan
nan nan nan nan nan nan nan nan nan nan nan nan nan nan nan nan nan nan nan nan nan nan nan nan nan nan nan nan nan nan nan nan nan nan nan nan nan nan nan nan nan nan nan nan nan nan nan 0 2 2 3 nan nan nan nan nan nan nan nan nan nan nan nan nan nan nan nan nan nan
nan nan nan nan nan nan nan nan nan nan nan nan nan nan nan nan nan nan nan nan nan nan nan nan nan nan nan nan nan nan nan nan nan nan nan nan nan nan nan nan nan nan nan nan nan nan 1 1 4 4 2 nan nan nan nan nan nan nan nan nan nan nan nan nan nan nan nan nan nan
nan nan nan nan nan nan nan nan nan nan nan nan nan nan nan nan nan nan nan nan nan nan nan nan nan nan nan nan nan nan nan nan nan nan nan nan nan nan nan nan nan nan nan nan 0 0 2 3 7 7 1 nan nan nan nan nan nan nan nan nan nan nan nan nan nan nan nan nan nan
nan nan nan nan nan nan nan nan nan nan nan nan nan nan nan nan nan nan nan nan nan nan nan nan nan nan nan nan nan nan nan nan nan nan nan nan nan nan nan nan nan nan nan nan 1 1 3 5 9 9 9 nan nan nan nan nan nan nan nan nan nan nan nan nan nan nan nan nan nan
nan nan nan nan nan nan nan nan nan nan nan nan nan nan nan nan nan nan nan nan nan nan nan nan nan nan nan nan nan nan nan nan nan nan nan nan nan nan nan nan nan nan nan nan 2 2 4 7 10 10 13 nan nan nan nan nan nan nan nan nan nan nan nan nan nan nan nan nan nan
nan nan nan nan nan nan nan nan nan nan nan nan nan nan nan nan nan nan nan nan nan nan nan nan nan nan nan nan nan nan nan nan nan nan nan nan nan nan nan nan nan nan nan nan 4 4 7 9 12 12 17 nan nan nan nan nan nan nan nan nan nan nan nan nan nan nan nan nan nan